This is the latest recevied weather packets stored in our database for station/object CALDNA-WX. If no packets are shown the sender has not sent any weather packets the latest 10 day(s).
| Time | Temp. | Humidity | Pressure | Rain* | Wind** | Luminosity | Snow |
|---|---|---|---|---|---|---|---|
| 1777990524 | 11.11° C | 40% | 979.3 hPa | 0 mm | - | - | - |
| 1777989655 | 11.11° C | 40% | 979.3 hPa | 0 mm | - | - | - |
| 1777988724 | 10.56° C | 46% | 979.3 hPa | 0 mm | - | - | - |
| 1777987843 | 10.56° C | 46% | 979.3 hPa | 0 mm | - | - | - |
| 1777986924 | 10.56° C | 46% | 979.3 hPa | 0 mm | - | - | - |
| 1777986051 | 11.11° C | 46% | 979.3 hPa | 0 mm | - | - | - |
| 1777985123 | 11.11° C | 65% | 978.7 hPa | 0 mm | - | - | - |
| 1777984243 | 11.11° C | 62% | 977 hPa | 0 mm | - | - | - |
| 1777983323 | 10.56° C | 62% | 977 hPa | 0 mm | - | - | - |
| 1777982457 | 10.56° C | 62% | 977 hPa | 0 mm | - | - | - |
| 1777981524 | 10° C | 61% | 977 hPa | 0 mm | - | - | - |
| 1777980641 | 10° C | 62% | 975.4 hPa | 0 mm | - | - | - |
| 1777979723 | 10.56° C | 62% | 975.4 hPa | 0 mm | - | - | - |
| 1777978854 | 10.56° C | 62% | 975.4 hPa | 0 mm | - | - | - |
| 1777977924 | 10.56° C | 51% | 973.9 hPa | 0 mm | - | - | - |
| 1777977041 | 10° C | 51% | 973.9 hPa | 0 mm | - | - | - |
| 1777976123 | 10.56° C | 51% | 973.9 hPa | 0 mm | - | - | - |
| 1777975253 | 11.11° C | 51% | 973.9 hPa | 0 mm | - | - | - |
| 1777974323 | 11.11° C | 48% | 974.1 hPa | 0 mm | - | - | - |
| 1777973445 | 11.67° C | 50% | 973.8 hPa | 0 mm | - | - | - |
| 1777972523 | 11.67° C | 50% | 973.8 hPa | 0 mm | - | - | - |
| 1777971656 | 11.67° C | 50% | 973.8 hPa | 0 mm | - | - | - |
| 1777970721 | 12.22° C | 59% | 974.1 hPa | 0 mm | - | - | - |
| 1777969842 | 12.22° C | 71% | 973.4 hPa | 0 mm | - | - | - |
| 1777968923 | 11.67° C | 71% | 973.4 hPa | 0 mm | - | - | - |
* Rain latest hour (hover to see other rain measurements)
** Current wind speed in m/s (hover to see current wind gust speed)